Time,TemperatureF,DewpointF,PressureIn,WindDirection,WindDirectionDegrees,WindSpeedMPH,WindSpeedGustMPH,Humidity,HourlyPrecipIn,Conditions,Clouds,dailyrainin,SoftwareType,DateUTC
2013-07-01 00:00:00,75.1,66.2,29.68,North,-999,0.0,0.0,74,0.00,,,-99.99,WeatherLink 5.6,2013-07-01 05:00:00,
2013-07-01 00:30:00,74.6,66.5,29.69,NNW,337,0.0,1.0,76,0.00,,,-99.99,WeatherLink 5.6,2013-07-01 05:30:00,
2013-07-01 01:00:00,74.2,66.5,29.69,NW,315,0.0,2.0,77,0.00,,,-99.99,WeatherLink 5.6,2013-07-01 06:00:00,
2013-07-01 01:30:00,74.4,66.3,29.69,NW,315,0.0,4.0,76,0.00,,,-99.99,WeatherLink 5.6,2013-07-01 06:30:00,
2013-07-01 02:00:00,73.9,66.6,29.68,NNW,337,0.0,3.0,78,0.00,,,-99.99,WeatherLink 5.6,2013-07-01 07:00:00,
2013-07-01 02:30:00,73.2,66.3,29.69,WNW,292,0.0,3.0,79,0.00,,,-99.99,WeatherLink 5.6,2013-07-01 07:30:00,
2013-07-01 03:00:00,72.7,66.2,29.69,NW,315,0.0,3.0,80,0.00,,,-99.99,WeatherLink 5.6,2013-07-01 08:00:00,
2013-07-01 03:30:00,72.3,66.1,29.69,North,0,0.0,3.0,81,0.00,,,-99.99,WeatherLink 5.6,2013-07-01 08:30:00,
2013-07-01 04:00:00,71.6,66.2,29.69,NNW,337,0.0,2.0,83,0.00,,,-99.99,WeatherLink 5.6,2013-07-01 09:00:00,
2013-07-01 04:30:00,70.9,65.5,29.70,NNW,337,0.0,1.0,83,0.00,,,-99.99,WeatherLink 5.6,2013-07-01 09:30:00,
2013-07-01 05:00:00,70.9,65.5,29.71,NNW,337,0.0,1.0,83,0.00,,,-99.99,WeatherLink 5.6,2013-07-01 10:00:00,
2013-07-01 05:30:00,70.4,65.3,29.71,North,0,0.0,2.0,84,0.00,,,-99.99,WeatherLink 5.6,2013-07-01 10:30:00,
2013-07-01 06:00:00,69.8,65.1,29.72,North,0,0.0,2.0,85,0.00,,,-99.99,WeatherLink 5.6,2013-07-01 11:00:00,
2013-07-01 06:30:00,69.8,65.1,29.72,North,0,0.0,3.0,85,0.00,,,-99.99,WeatherLink 5.6,2013-07-01 11:30:00,
2013-07-01 07:00:00,71.3,65.2,29.73,North,0,0.0,6.0,81,0.00,,,-99.99,WeatherLink 5.6,2013-07-01 12:00:00,
2013-07-01 07:30:00,73.2,65.9,29.74,NW,315,0.0,5.0,78,0.00,,,-99.99,WeatherLink 5.6,2013-07-01 12:30:00,
2013-07-01 08:00:00,75.6,66.3,29.74,North,0,0.0,5.0,73,0.00,,,-99.99,WeatherLink 5.6,2013-07-01 13:00:00,
2013-07-01 08:30:00,78.6,67.2,29.75,ENE,67,1.0,6.0,68,0.00,,,-99.99,WeatherLink 5.6,2013-07-01 13:30:00,
2013-07-01 09:00:00,80.5,66.3,29.75,ENE,67,2.0,9.0,62,0.00,,,-99.99,WeatherLink 5.6,2013-07-01 14:00:00,
2013-07-01 09:30:00,82.4,66.1,29.76,ENE,67,1.0,6.0,58,0.00,,,-99.99,WeatherLink 5.6,2013-07-01 14:30:00,
2013-07-01 10:00:00,84.1,67.2,29.76,NNE,22,1.0,5.0,57,0.00,,,-99.99,WeatherLink 5.6,2013-07-01 15:00:00,
2013-07-01 10:30:00,84.1,66.7,29.76,NW,315,1.0,10.0,56,0.00,,,-99.99,WeatherLink 5.6,2013-07-01 15:30:00,
2013-07-01 11:00:00,85.5,66.4,29.76,NNE,22,1.0,7.0,53,0.00,,,-99.99,WeatherLink 5.6,2013-07-01 16:00:00,
2013-07-01 11:30:00,86.5,65.1,29.76,WNW,292,2.0,12.0,49,0.00,,,-99.99,WeatherLink 5.6,2013-07-01 16:30:00,
2013-07-01 12:00:00,86.7,64.7,29.75,WNW,292,4.0,14.0,48,0.00,,,-99.99,WeatherLink 5.6,2013-07-01 17:00:00,
2013-07-01 12:30:00,87.8,63.2,29.75,West,270,3.0,13.0,44,0.00,,,-99.99,WeatherLink 5.6,2013-07-01 17:30:00,
2013-07-01 13:00:00,88.4,63.7,29.74,WNW,292,4.0,13.0,44,0.00,,,-99.99,WeatherLink 5.6,2013-07-01 18:00:00,
2013-07-01 13:30:00,88.0,62.7,29.73,West,270,4.0,13.0,43,0.00,,,-99.99,WeatherLink 5.6,2013-07-01 18:30:00,
2013-07-01 14:00:00,89.9,60.9,29.72,West,270,4.0,12.0,38,0.00,,,-99.99,WeatherLink 5.6,2013-07-01 19:00:00,
2013-07-01 14:30:00,89.5,59.0,29.72,WNW,292,3.0,13.0,36,0.00,,,-99.99,WeatherLink 5.6,2013-07-01 19:30:00,
2013-07-01 15:00:00,89.5,66.0,29.72,West,270,3.0,12.0,46,0.00,,,-99.99,WeatherLink 5.6,2013-07-01 20:00:00,
2013-07-01 15:30:00,91.4,62.2,29.72,West,270,2.0,14.0,38,0.00,,,-99.99,WeatherLink 5.6,2013-07-01 20:30:00,
2013-07-01 16:00:00,90.3,64.8,29.72,WNW,292,1.0,8.0,43,0.00,,,-99.99,WeatherLink 5.6,2013-07-01 21:00:00,
2013-07-01 16:30:00,91.4,60.7,29.72,NNE,22,1.0,7.0,36,0.00,,,-99.99,WeatherLink 5.6,2013-07-01 21:30:00,
2013-07-01 17:00:00,90.3,62.0,29.72,WNW,292,2.0,10.0,39,0.00,,,-99.99,WeatherLink 5.6,2013-07-01 22:00:00,
2013-07-01 17:30:00,88.8,61.4,29.72,WNW,292,2.0,13.0,40,0.00,,,-99.99,WeatherLink 5.6,2013-07-01 22:30:00,
2013-07-01 18:00:00,89.3,62.5,29.72,NW,315,1.0,11.0,41,0.00,,,-99.99,WeatherLink 5.6,2013-07-01 23:00:00,
2013-07-01 18:30:00,88.6,64.5,29.74,WNW,292,1.0,7.0,45,0.00,,,-99.99,WeatherLink 5.6,2013-07-01 23:30:00,
2013-07-01 19:00:00,87.2,64.5,29.75,NNE,22,0.0,6.0,47,0.00,,,-99.99,WeatherLink 5.6,2013-07-02 00:00:00,
2013-07-01 19:30:00,85.1,65.5,29.76,North,0,0.0,3.0,52,0.00,,,-99.99,WeatherLink 5.6,2013-07-02 00:30:00,
2013-07-01 20:00:00,83.2,66.4,29.77,North,0,0.0,1.0,57,0.00,,,-99.99,WeatherLink 5.6,2013-07-02 01:00:00,
2013-07-01 20:30:00,80.7,67.4,29.77,North,-999,0.0,0.0,64,0.00,,,-99.99,WeatherLink 5.6,2013-07-02 01:30:00,
2013-07-01 21:00:00,78.6,67.6,29.78,North,-999,0.0,0.0,69,0.00,,,-99.99,WeatherLink 5.6,2013-07-02 02:00:00,
2013-07-01 21:30:00,77.6,67.0,29.78,North,0,0.0,1.0,70,0.00,,,-99.99,WeatherLink 5.6,2013-07-02 02:30:00,
2013-07-01 22:00:00,76.3,67.4,29.80,North,-999,0.0,0.0,74,0.00,,,-99.99,WeatherLink 5.6,2013-07-02 03:00:00,
2013-07-01 22:30:00,75.1,67.0,29.80,North,-999,0.0,0.0,76,0.00,,,-99.99,WeatherLink 5.6,2013-07-02 03:30:00,
2013-07-01 23:00:00,74.4,67.1,29.80,North,-999,0.0,0.0,78,0.00,,,-99.99,WeatherLink 5.6,2013-07-02 04:00:00,
2013-07-01 23:30:00,73.5,67.3,29.81,North,-999,0.0,0.0,81,0.00,,,-99.99,WeatherLink 5.6,2013-07-02 04:30:00,